Location: College Park
(38.9810°N, 76.9370°W)
Time: 00:01:05
(UTC-04:00)

Envisat - Visible Passes

Search period start: 17 October 2017 00:00
Search period end: 27 October 2017 00:00
Orbit: 764 x 766 km, 98.2° (Epoch: 16 October)

Date Brightness Start Highest point End Pass type
(mag) Time Alt. Az. Time Alt. Az. Time Alt. Az.
17 Oct 4.2 20:09:18 25° NE 20:09:18 25° NE 20:12:08 10° N visible
17 Oct 5.4 21:49:31 19° NW 21:49:31 19° NW 21:51:10 10° NW visible
18 Oct 4.8 19:32:19 13° NE 19:32:19 13° NE 19:34:00 10° NNE visible
18 Oct 4.6 21:12:32 28° NNW 21:12:32 28° NNW 21:14:57 10° NNW visible
19 Oct 4.2 20:35:33 29° NNE 20:35:33 29° NNE 20:38:09 10° N visible
19 Oct 6.0 22:15:46 10° NW 22:15:46 10° NW 22:15:48 10° NW visible
20 Oct 4.5 19:58:34 20° NE 19:58:34 20° NE 20:00:46 10° NNE visible
20 Oct 5.3 21:38:47 19° NW 21:38:47 19° NW 21:40:17 10° NNW visible
21 Oct 5.0 19:21:35 10° NE 19:21:35 10° NE 19:21:48 10° NE visible
21 Oct 4.7 21:01:48 25° NNW 21:01:48 25° NNW 21:03:53 10° NNW visible
22 Oct 4.5 20:24:49 23° NNE 20:24:49 23° NNE 20:26:55 10° N visible
22 Oct 6.0 22:05:02 11° NW 22:05:02 11° NW 22:05:12 10° NW visible
23 Oct 4.8 19:47:50 15° NE 19:47:50 15° NE 19:49:17 10° NNE visible
23 Oct 5.3 21:28:03 18° NNW 21:28:03 18° NNW 21:29:20 10° NNW visible
24 Oct 4.8 20:51:03 21° N 20:51:03 21° N 20:52:45 10° N visible
25 Oct 4.7 20:14:04 18° NNE 20:14:04 18° NNE 20:15:38 10° N visible
25 Oct 5.9 21:54:17 11° NW 21:54:17 11° NW 21:54:27 10° NW visible
26 Oct 5.0 19:37:05 12° NE 19:37:05 12° NE 19:37:40 10° NNE visible
26 Oct 5.3 21:17:18 16° NNW 21:17:18 16° NNW 21:18:19 10° NNW visible
